Regional Weather Roundup
Issued by NWS Little Rock, AR

Home | Current Version | Previous Version | Graphics & Text | Print | Product List | Glossary On
Versions: 1 2 3 4 5 6 7 8 9 10 11 12 13 14 15 16 17 18 19 20 21 22 23 24 25 26 27 28 29 30 31 32 33 34 35 36 37 38 39 40 41 42 43 44 45 46 47 48 49 50
000
ASUS44 KLZK 310405
RWRLZK

WEATHER ROUNDUP FOR ARKANSAS
NATIONAL WEATHER SERVICE LITTLE ROCK AR
1000 PM CST FRI JAN 30 2015

NOTE: "FAIR" INDICATES FEW OR NO CLOUDS BELOW 12,000 FEET WITH NO
SIGNIFICANT WEATHER AND/OR OBSTRUCTIONS TO VISIBILITY.

ARZ001-003-010-029-310500-
NORTHWEST ARKANSAS

CITY           SKY/WX    TMP DP  RH WIND       PRES   REMARKS
FAYETTEVILLE   MOCLDY    36  29  75 S5        30.37F
FORT SMITH     CLOUDY    44  28  53 NE5       30.40S
HARRISON       CLOUDY    37  23  56 SE7       30.37F
BENTONVILLE    CLOUDY    41  21  45 S5        30.37F
ROGERS         CLOUDY    41  22  46 SE7       30.36F
SILOAM SPGS    MOCLDY    39  19  45 SE6       30.37F
HIGHFILL       CLOUDY    41  23  48 S5        30.36F
$$

ARZ004-005-016-310500-
NORTH CENTRAL ARKANSAS

CITY           SKY/WX    TMP DP  RH WIND       PRES   REMARKS
BATESVILLE     MOCLDY    36  27  69 CALM      30.44S
FLIPPIN        CLOUDY    34  21  60 CALM      30.40S
MTN HOME       CLOUDY    39  19  44 SE3       30.39F
$$

ARZ040-041-310500-
WEST CENTRAL ARKANSAS

CITY           SKY/WX    TMP DP  RH WIND       PRES   REMARKS
MENA           CLOUDY    41  30  65 CALM      30.38F
MOUNT IDA      MOCLDY    39  30  70 CALM      30.38F
$$

ARZ009-017-025-026-028-310500-
NORTHEAST ARKANSAS

CITY           SKY/WX    TMP DP  RH WIND       PRES   REMARKS
CORNING        FAIR      32  28  86 CALM      30.46R FOG
JONESBORO      CLEAR     29  27  92 CALM      30.44S
NEWPORT        MOCLDY    35  30  82 CALM      30.46S
WALNUT RIDGE   CLEAR     32  25  74 CALM      30.45S
BLYTHEVILLE    CLEAR     30  26  85 NE7       30.45F WCI  23
$$

ARZ022-023-033-042-044-310500-
CENTRAL ARKANSAS

CITY           SKY/WX    TMP DP  RH WIND       PRES   REMARKS
LITTLE ROCK    MOCLDY    39  26  59 NE3       30.45S
N LITTLE ROCK  MOCLDY    40  28  63 E5        30.45S
JACKSONVILLE   CLOUDY    33  27  77 CALM      30.44S
SEARCY         MOCLDY    37  29  72 CALM      30.46S
HOT SPRINGS    MOCLDY    42  27  55 CALM      30.42S
RUSSELLVILLE   CLOUDY    39  31  72 CALM      30.41F
CLINTON        FAIR      34  28  80 CALM      30.45S
$$

ARZ036-310500-
EAST ARKANSAS

CITY           SKY/WX    TMP DP  RH WIND       PRES   REMARKS
WEST MEMPHIS   PTCLDY    34  28  79 NE5       30.43S WCI  30
$$

ARZ050-053-066-070-073-310500-
SOUTHWEST ARKANSAS

CITY           SKY/WX    TMP DP  RH WIND       PRES   REMARKS
ARKADELPHIA    FAIR      39  33  79 N3        30.44R
CAMDEN         CLEAR     32  27  80 MISG      30.43S
TEXARKANA      MOCLDY    42  32  67 E3        30.39F
EL DORADO      CLEAR     36  29  75 CALM      30.41S
DE QUEEN       MOCLDY    40  31  70 E5        30.38F
$$

ARZ056-057-069-310500-
SOUTHEAST ARKANSAS

CITY           SKY/WX    TMP DP  RH WIND       PRES   REMARKS
PINE BLUFF     PTCLDY    38  28  67 NE5       30.44S
STUTTGART      CLEAR     36  27  69 NE7       30.44S
MONTICELLO     CLEAR     36  29  75 NE3       30.42F

$$




USA.gov is the U.S. government's official web portal to all federal, state and local government web resources and services.